FW7048 Weather Reports


time (UTC)temp
C
wind
direction
speed
KPH
gust
KPH
rain 1hr
cm
rain 24hr
cm
rain mn
cm
humidity
%
barometer
mb
20260508213054 21 5 16.1 30.6 0.00 0.00 0.00 24 1018.2
20260508211556 21 5 14.5 40.2 0.00 0.00 0.00 26 1018.4
20260508210056 21 5 14.5 29.0 0.00 0.00 0.00 26 1018.6
20260508204600 21 5 20.9 33.8 0.00 0.00 0.00 27 1018.7
20260508203102 21 5 17.7 30.6 0.00 0.00 0.00 25 1018.8
20260508201604 21 5 9.7 25.7 0.00 0.00 0.00 27 1018.9
20260508200109 21 5 16.1 29.0 0.00 0.00 0.00 28 1018.9
20260508194602 20 5 16.1 29.0 0.00 0.00 0.00 31 1019.0
20260508193105 20 5 11.3 24.1 0.00 0.00 0.00 29 1019.0
20260508191554 19 5 8.0 19.3 0.00 0.00 0.00 31 1019.2
20260508190056 20 5 8.0 24.1 0.00 0.00 0.00 33 1019.0
20260508184557 20 5 4.8 22.5 0.00 0.00 0.00 33 1019.3
20260508183113 19 5 4.8 16.1 0.00 0.00 0.00 31 1019.4
20260508181611 19 5 11.3 19.3 0.00 0.00 0.00 33 1019.5
20260508180101 19 5 6.4 20.9 0.00 0.00 0.00 34 1019.5
20260508174554 18 5 12.9 22.5 0.00 0.00 0.00 35 1019.6
20260508173103 18 5 6.4 17.7 0.00 0.00 0.00 42 1019.8
20260508171555 18 5 4.8 14.5 0.00 0.00 0.00 41 1019.6
20260508170054 18 5 6.4 17.7 0.00 0.00 0.00 40 1019.5
20260508164552 18 0 4.8 12.9 0.00 0.00 0.00 37 1019.5
20260508163053 18 5 3.2 14.5 0.00 0.00 0.00 35 1019.5
20260508161552 17 5 4.8 14.5 0.00 0.00 0.00 41 1019.3
20260508160058 17 5 6.4 16.1 0.00 0.00 0.00 43 1019.1
20260508154553 17 5 6.4 12.9 0.00 0.00 0.00 41 1019.1
20260508153054 17 5 3.2 8.0 0.00 0.00 0.00 42 1019.1
20260508151553 17 0 3.2 6.4 0.00 0.00 0.00 41 1018.9
20260508150121 17 0 0.0 3.2 0.00 0.00 0.00 39 1018.8
20260508144602 16 0 0.0 3.2 0.00 0.00 0.00 38 1018.7
20260508143055 15 5 0.0 4.8 0.00 0.00 0.00 43 1018.6
20260508141602 13 5 0.0 3.2 0.00 0.00 0.00 52 1018.6
20260508140100 12 0 0.0 1.6 0.00 0.00 0.00 43 1018.5
20260508134556 12 0 0.0 3.2 0.00 0.00 0.00 45 1018.2
20260508133053 11 5 1.6 4.8 0.00 0.00 0.00 43 1018.1
20260508131559 11 5 0.0 4.8 0.00 0.00 0.00 46 1018.2
20260508130054 11 5 0.0 4.8 0.00 0.00 0.00 46 1017.9
20260508124601 11 0 1.6 4.8 0.00 0.00 0.00 44 1017.8
20260508123055 11 0 0.0 4.8 0.00 0.00 0.00 44 1017.7
20260508121556 12 0 0.0 3.2 0.00 0.00 0.00 44 1017.7
20260508120059 12 5 0.0 4.8 0.00 0.00 0.00 44 1017.4
20260508114602 12 5 1.6 6.4 0.00 0.00 0.00 46 1017.4
20260508113124 11 5 0.0 6.4 0.00 0.00 0.00 47 1017.4
20260508111554 10 0 0.0 3.2 0.00 0.00 0.00 52 1017.4
20260508110053 11 5 0.0 4.8 0.00 0.00 0.00 52 1017.3
20260508104558 11 0 0.0 6.4 0.00 0.00 0.00 52 1017.2
20260508103103 11 5 0.0 12.9 0.00 0.00 0.00 51 1017.2
20260508101553 11 5 1.6 8.0 0.00 0.00 0.00 51 1017.3
20260508100052 12 5 3.2 8.0 0.00 0.00 0.00 50 1017.2
20260508094552 11 5 1.6 9.7 0.00 0.00 0.00 50 1017.0
20260508093055 12 5 1.6 8.0 0.00 0.00 0.00 49 1016.8
20260508091556 12 0 1.6 9.7 0.00 0.00 0.00 48 1016.9
20260508090053 12 5 4.8 14.5 0.00 0.00 0.00 48 1016.7
20260508084553 13 5 0.0 6.4 0.00 0.00 0.00 46 1016.9
20260508083055 15 0 0.0 9.7 0.00 0.00 0.00 42 1016.8
20260508081610 15 5 4.8 12.9 0.00 0.00 0.00 41 1016.8
20260508080057 12 5 1.6 19.3 0.00 0.00 0.00 47 1017.0
20260508074559 12 5 4.8 12.9 0.00 0.00 0.00 47 1016.9
20260508073103 12 5 1.6 9.7 0.00 0.00 0.00 47 1017.0
20260508071601 12 0 0.0 1.6 0.00 0.00 0.00 47 1017.0
20260508070100 12 0 0.0 9.7 0.00 0.00 0.00 46 1016.7
20260508064605 12 5 3.2 9.7 0.00 0.00 0.00 47 1016.6
20260508063057 12 5 3.2 8.0 0.00 0.00 0.00 46 1016.7
20260508061601 13 5 1.6 9.7 0.00 0.00 0.00 44 1016.8
20260508060055 13 5 0.0 8.0 0.00 0.00 0.00 44 1016.7
20260508054623 13 5 1.6 8.0 0.00 0.00 0.00 43 1016.6
20260508053101 14 5 4.8 12.9 0.00 0.00 0.00 43 1016.6
20260508051557 13 5 1.6 12.9 0.00 0.00 0.00 42 1016.4
20260508050058 13 360 3.2 8.0 0.00 0.00 0.00 44 1016.5
20260508044553 13 5 1.6 12.9 0.00 0.00 0.00 45 1016.2
20260508043058 13 0 1.6 6.4 0.00 0.00 0.00 43 1016.4
20260508041554 15 0 0.0 9.7 0.00 0.00 0.00 41 1016.4
20260508034553 15 5 3.2 6.4 0.00 0.00 0.00 43 1016.1
20260508033057 16 0 0.0 4.8 0.00 0.00 0.00 37 1015.8
20260508031604 16 5 0.0 4.8 0.00 0.00 0.00 38 1015.9
20260508030105 17 5 1.6 4.8 0.00 0.00 0.00 37 1015.5
20260508024553 18 360 1.6 6.4 0.00 0.00 0.00 32 1015.6
20260508023057 18 5 3.2 8.0 0.00 0.00 0.00 32 1015.5
20260508021603 19 5 4.8 12.9 0.00 0.00 0.00 30 1015.5
20260508020054 21 5 4.8 9.7 0.00 0.00 0.00 29 1015.5
20260508014553 21 5 4.8 16.1 0.00 0.00 0.00 29 1015.4
20260508013056 21 5 6.4 19.3 0.00 0.00 0.00 28 1015.5
20260508011604 22 5 6.4 16.1 0.00 0.00 0.00 28 1015.5
20260508010104 22 5 1.6 9.7 0.00 0.00 0.00 27 1015.7
20260508004555 22 5 4.8 19.3 0.00 0.00 0.00 27 1015.7
20260508003100 22 5 6.4 14.5 0.00 0.00 0.00 28 1015.8
20260508001600 22 5 4.8 12.9 0.00 0.00 0.00 26 1016.0
20260508000116 22 5 1.6 12.9 0.00 0.00 0.00 28 1016.0
20260507234553 20 5 8.0 17.7 0.00 0.00 0.00 30 1016.1
20260507233052 20 5 8.0 14.5 0.00 0.00 0.00 30 1016.3
20260507231600 21 5 6.4 24.1 0.00 0.00 0.00 28 1016.4
20260507230056 21 5 11.3 19.3 0.00 0.00 0.00 26 1016.7
20260507224553 20 5 8.0 22.5 0.00 0.00 0.00 30 1017.2
20260507223056 20 5 11.3 29.0 0.00 0.00 0.00 30 1017.3
20260507221601 21 5 12.9 29.0 0.00 0.00 0.00 30 1017.5
20260507220055 21 5 4.8 17.7 0.00 0.00 0.00 30 1017.5
20260507214555 20 5 8.0 24.1 0.00 0.00 0.00 30 1017.9